This is the latest recevied weather packets stored in our database for station/object N2VUZ-1. If no packets are shown the sender has not sent any weather packets the latest 10 day(s).
| Time | Temp. | Humidity | Pressure | Rain* | Wind** | Luminosity | Snow |
|---|---|---|---|---|---|---|---|
| 1788285261 | 33.33° C | 58% | 1014.7 hPa | 0 mm | - | - | - |
| 1788284961 | 33.33° C | 63% | 1014.6 hPa | 0 mm | - | - | - |
| 1788284661 | 32.78° C | 58% | 1014.7 hPa | 0 mm | - | - | - |
| 1788284361 | 32.78° C | 57% | 1014.9 hPa | 0 mm | - | - | - |
| 1788284061 | 32.78° C | 58% | 1014.8 hPa | 0 mm | - | - | - |
| 1788283761 | 32.78° C | 59% | 1014.6 hPa | 0 mm | - | - | - |
| 1788283461 | 33.33° C | 61% | 1014.8 hPa | 0 mm | - | - | - |
| 1788283161 | 33.33° C | 60% | 1014.8 hPa | 0 mm | - | - | - |
| 1788282861 | 32.78° C | 59% | 1014.8 hPa | 0 mm | - | - | - |
| 1788282561 | 32.78° C | 60% | 1014.9 hPa | 0 mm | - | - | - |
| 1788282261 | 32.22° C | 61% | 1014.9 hPa | 0 mm | - | - | - |
| 1788281961 | 32.22° C | 63% | 1014.8 hPa | 0 mm | - | - | - |
| 1788281661 | 32.78° C | 59% | 1014.9 hPa | 0 mm | - | - | - |
| 1788281361 | 32.22° C | 62% | 1015.1 hPa | 0 mm | - | - | - |
| 1788281061 | 32.22° C | 62% | 1015.1 hPa | 0 mm | - | - | - |
| 1788280761 | 32.22° C | 62% | 1015.2 hPa | 0 mm | - | - | - |
| 1788280461 | 31.67° C | 64% | 1015.3 hPa | 0 mm | - | - | - |
| 1788280161 | 31.67° C | 63% | 1015.5 hPa | 0 mm | - | - | - |
| 1788279861 | 31.67° C | 62% | 1015.5 hPa | 0 mm | - | - | - |
| 1788279561 | 31.67° C | 62% | 1015.4 hPa | 0 mm | - | - | - |
| 1788279261 | 31.67° C | 63% | 1015.5 hPa | 0 mm | - | - | - |
| 1788278961 | 31.67° C | 65% | 1015.5 hPa | 0 mm | - | - | - |
| 1788278661 | 31.67° C | 65% | 1015.5 hPa | 0 mm | - | - | - |
| 1788278361 | 31.67° C | 66% | 1015.5 hPa | 0 mm | - | - | - |
| 1788278061 | 31.67° C | 67% | 1015.6 hPa | 0 mm | - | - | - |
* Rain latest hour (hover to see other rain measurements)
** Current wind speed in m/s (hover to see current wind gust speed)